Location: Moscow
(44.4414°N, 72.7154°W)
Time: 23:58:18
(UTC+00:00)

Courier 1B - Pass Details

Date: 13 November 2024
Orbit: 962 x 1208 km, 28.3° (Epoch: 08 December)

Event Time Altitude Azimuth Distance (km) Brightness Sun altitude
Rises 22:46:26 0° 248° (WSW) 3,633 12.3 -14.6°
Reaches altitude 10° 22:50:29 10° 224° (SW) 2,696 10.7 -15.3°
Maximum altitude 22:53:36 14° 195° (SSW) 2,435 9.9 -15.9°
Drops below altitude 10° 22:56:46 10° 166° (SSE) 2,736 9.8 -16.4°
Sets 23:00:57 0° 142° (SE) 3,727 10.3 -17.2°
